(269147) = 2008 DU4 = 2004 AD18

Discovered at Calvin-Rehoboth on 2008-02-27 by Calvin College.

Orbit

Orbit type: Main Belt

Note: WebGL enabled browser required.

epoch2023-09-13.0
epoch JD2460200.5
perihelion date2022-06-29.18789
perihelion JD2459759.68789
argument of perihelion (°)139.06450
ascending node (°)140.10802
inclination (°)5.08776
eccentricity0.1825466
perihelion distance (AU)1.8467937
Tisserand w.r.t. Jupiter3.6
ΔV w.r.t. Earth (km/sec)8.5
semimajor axis (AU)2.2592037
mean anomaly (°)127.94528
mean daily motion (°/day)0.29024900
aphelion distance (AU)2.672
period (years)3.4
P-vector [x]0.16106325
P-vector [y]-0.92704568
P-vector [z]-0.33859257
Q-vector [x]0.98530393
Q-vector [y]0.17080718
Q-vector [z]0.00103424
absolute magnitude17.45
phase slope0.15
uncertainty0
referenceMPEC 2023-Y46
observations used311
oppositions14
arc length (days)9370
first opposition used1998
last opposition used2023
residual rms (arc-secs)0.74
perturbers coarse indicatorM-v
perturbers precise indicator003Ek
first observation date used1998-04-21.0
last observation date used2023-12-16.0
computer nameMPCLINUX
JD of orbit computation2455941.249833
perihelion JD uncertainty (days)1.3083E-04
argument of perihelion uncertainty (°)8.9397E-05
ascending node uncertainty (°)8.3265E-05
inclination uncertainty (°)8.1827E-06
eccentricity uncertainty 5.4065E-08
perihelion distance uncertainty (AU)1.4016E-07
Minimum Orbit Intersection Distances (in AU)
for orbit epoch: 2460200.5, reference: E2023-Y46
Mercury1.39221
Venus1.12324
Earth0.83336
Mars0.41295
Jupiter2.4598
Saturn6.38911
Uranus15.969
Neptune27.3373

Observations

315 total observations over interval: 1998 04 21.37138 – 2023 12 16.298658
These data are available for download (format description).

Date (UT) J2000 RA J2000 Dec Magn Location Ref
1998 04 21.37138 14 53 27.35 -06 23 41.1   704 – Lincoln Laboratory ETS, New Mexico MPS 407475
2002 09 05.349130 00 50 55.617 -00 38 34.85 20.38 V 645 – Apache Point-Sloan Digital Sky Survey MPS 240901
2002 09 05.352602 00 50 55.486 -00 38 36.49 21.21   645 – Apache Point-Sloan Digital Sky Survey MPS 240901
2004 01 15.37838 07 50 46.30 +17 33 51.3 21.4 V 691 – Steward Observatory, Kitt Peak-Spacewatch MPS 109924
2004 01 15.40469 07 50 44.52 +17 33 58.4 21.8 V 691 – Steward Observatory, Kitt Peak-Spacewatch MPS 109924
2004 01 15.43146 07 50 42.69 +17 34 05.6 21.9 V 691 – Steward Observatory, Kitt Peak-Spacewatch MPS 109924
2004 01 27.20169 07 37 52.45 +18 27 25.1 22.1 V 691 – Steward Observatory, Kitt Peak-Spacewatch MPS 109924
2004 01 27.22930 07 37 50.63 +18 27 32.9 21.8 V 691 – Steward Observatory, Kitt Peak-Spacewatch MPS 109924
2004 01 27.25697 07 37 48.86 +18 27 40.1 22.2 V 691 – Steward Observatory, Kitt Peak-Spacewatch MPS 109924
2008 02 27.41845 12 54 00.29 -00 12 06.4 20.8 R G98 – Calvin-Rehoboth Observatory, Rehoboth MPS 239677
2008 02 27.44454 12 53 59.68 -00 11 56.7 20.6 R G98 – Calvin-Rehoboth Observatory, Rehoboth MPS 239677
2008 02 27.45775 12 53 59.42 -00 11 50.9 20.3 R G98 – Calvin-Rehoboth Observatory, Rehoboth MPS 239677
2008 02 28.33641 12 53 41.43 -00 06 21.5 20.5 V 691 – Steward Observatory, Kitt Peak-Spacewatch MPS 240901
2008 02 28.35403 12 53 41.02 -00 06 14.9 20.4 V 691 – Steward Observatory, Kitt Peak-Spacewatch MPS 240901
2008 02 28.37163 12 53 40.60 -00 06 08.1 20.4 V 691 – Steward Observatory, Kitt Peak-Spacewatch MPS 240901
2008 02 28.41373 12 53 39.61 -00 05 52.2 20.9 R G98 – Calvin-Rehoboth Observatory, Rehoboth MPS 239677
2008 02 28.42630 12 53 39.32 -00 05 47.3 20.6 R G98 – Calvin-Rehoboth Observatory, Rehoboth MPS 239677
2008 02 28.43887 12 53 39.01 -00 05 42.1 21.7 R G98 – Calvin-Rehoboth Observatory, Rehoboth MPS 239677
2008 02 29.37693 12 53 18.02 +00 00 20.5 20.4 R G98 – Calvin-Rehoboth Observatory, Rehoboth MPS 240901
2008 02 29.39972 12 53 17.52 +00 00 28.9 21.0 R G98 – Calvin-Rehoboth Observatory, Rehoboth MPS 240901
2008 02 29.42241 12 53 16.86 +00 00 38.2 20.8 R G98 – Calvin-Rehoboth Observatory, Rehoboth MPS 240901
2008 02 29.44507 12 53 16.30 +00 00 47.0 20.7 R G98 – Calvin-Rehoboth Observatory, Rehoboth MPS 240901
2008 03 06.39454 12 50 25.94 +00 42 46.3 20.7 R G98 – Calvin-Rehoboth Observatory, Rehoboth MPS 240901
2008 03 06.40817 12 50 25.48 +00 42 53.0 20.7 R G98 – Calvin-Rehoboth Observatory, Rehoboth MPS 240901
2008 03 06.42181 12 50 24.99 +00 42 59.0 20.6 R G98 – Calvin-Rehoboth Observatory, Rehoboth MPS 240901
2008 03 06.43543 12 50 24.51 +00 43 05.1 20.8 R G98 – Calvin-Rehoboth Observatory, Rehoboth MPS 240901
2008 03 06.44904 12 50 24.00 +00 43 10.9 21.5 R G98 – Calvin-Rehoboth Observatory, Rehoboth MPS 240901
2008 03 07.29108 12 49 55.33 +00 49 35.6   691 – Steward Observatory, Kitt Peak-Spacewatch MPS 243610
2008 03 07.30875 12 49 54.70 +00 49 43.8   691 – Steward Observatory, Kitt Peak-Spacewatch MPS 243610
2008 03 07.32643 12 49 54.03 +00 49 52.1   691 – Steward Observatory, Kitt Peak-Spacewatch MPS 243610
2008 03 11.27710 12 47 23.05 +01 21 11.8 20.1 V 691 – Steward Observatory, Kitt Peak-Spacewatch MPS 242287
2008 03 11.29482 12 47 22.29 +01 21 20.6 20.1 V 691 – Steward Observatory, Kitt Peak-Spacewatch MPS 242287
2008 03 11.31252 12 47 21.51 +01 21 29.1 20.0 V 691 – Steward Observatory, Kitt Peak-Spacewatch MPS 242287
2008 03 15.27147 12 44 27.83 +01 54 35.3 19.9 V 691 – Steward Observatory, Kitt Peak-Spacewatch MPS 243610
2008 03 15.28919 12 44 26.95 +01 54 44.3 20.1 V 691 – Steward Observatory, Kitt Peak-Spacewatch MPS 243610
2008 03 15.30692 12 44 26.13 +01 54 53.4 19.9 V 691 – Steward Observatory, Kitt Peak-Spacewatch MPS 243610
2008 03 29.31891 12 32 06.96 +03 56 48.4 19.8 R G98 – Calvin-Rehoboth Observatory, Rehoboth MPS 244814
2008 03 29.33307 12 32 06.12 +03 56 55.7 19.7 R G98 – Calvin-Rehoboth Observatory, Rehoboth MPS 244814
2008 03 29.34662 12 32 05.30 +03 57 02.9 20.1 R G98 – Calvin-Rehoboth Observatory, Rehoboth MPS 244814
2008 03 29.36038 12 32 04.49 +03 57 10.4 20.2 R G98 – Calvin-Rehoboth Observatory, Rehoboth MPS 244814
2008 03 30.30221 12 31 11.06 +04 05 09.1 19.6 V 703 – Catalina Sky Survey MPS 244814
2008 03 30.30961 12 31 10.70 +04 05 13.9 19.9 V 703 – Catalina Sky Survey MPS 244814
2008 03 30.31701 12 31 10.27 +04 05 16.5 20.7 V 703 – Catalina Sky Survey MPS 244814
2008 03 30.32444 12 31 09.87 +04 05 20.1 19.5 V 703 – Catalina Sky Survey MPS 244814
2008 04 11.25066 12 20 09.38 +05 36 36.7   291 – LPL/Spacewatch II MPS 245823
2008 04 11.25937 12 20 08.90 +05 36 40.4   291 – LPL/Spacewatch II MPS 245823
2008 04 11.26849 12 20 08.41 +05 36 43.7   291 – LPL/Spacewatch II MPS 245823
2008 04 11.30816 12 20 06.27 +05 36 59.6   291 – LPL/Spacewatch II MPS 245823
2008 04 11.31686 12 20 05.79 +05 37 02.9   291 – LPL/Spacewatch II MPS 245823
2008 04 11.32570 12 20 05.33 +05 37 06.3   291 – LPL/Spacewatch II MPS 245823
2008 04 12.28039 12 19 16.32 +05 43 19.2 20.1 V 703 – Catalina Sky Survey MPS 246817
2008 04 12.29118 12 19 15.70 +05 43 23.3 20.4 V 703 – Catalina Sky Survey MPS 246817
2008 04 12.30190 12 19 15.24 +05 43 28.0 20.1 V 703 – Catalina Sky Survey MPS 246817
2008 04 12.31265 12 19 14.59 +05 43 31.4 20.5 V 703 – Catalina Sky Survey MPS 246817
2008 04 13.29027 12 18 25.48 +05 49 41.3   291 – LPL/Spacewatch II MPS 246817
2008 04 13.29894 12 18 25.03 +05 49 44.7   291 – LPL/Spacewatch II MPS 246817
2008 04 13.31175 12 18 24.32 +05 49 49.5   291 – LPL/Spacewatch II MPS 246817
2008 04 14.28297 12 17 36.42 +05 55 44.1 20.4 V G96 – Mt. Lemmon Survey MPS 246817
2008 04 14.28972 12 17 36.06 +05 55 46.5 20.2 V G96 – Mt. Lemmon Survey MPS 246817
2008 04 14.29638 12 17 35.73 +05 55 48.9 19.6 V G96 – Mt. Lemmon Survey MPS 246817
2008 04 14.30301 12 17 35.37 +05 55 51.2 19.5 V G96 – Mt. Lemmon Survey MPS 246817
2009 09 28.39088 02 52 51.86 +08 40 30.8 20.8 R G98 – Calvin-Rehoboth Observatory, Rehoboth MPS 296992
2009 09 28.41389 02 52 51.14 +08 40 23.6 20.1 R G98 – Calvin-Rehoboth Observatory, Rehoboth MPS 296992
2009 09 28.43620 02 52 50.42 +08 40 16.2 20.3 R G98 – Calvin-Rehoboth Observatory, Rehoboth MPS 296992
2009 09 28.45860 02 52 49.73 +08 40 08.8 20.5 R G98 – Calvin-Rehoboth Observatory, Rehoboth MPS 296992
2009 11 11.18584 02 13 47.37 +04 36 20.6 20.0 R G98 – Calvin-Rehoboth Observatory, Rehoboth MPS 302232
2009 11 11.21140 02 13 45.92 +04 36 16.1 20.3 R G98 – Calvin-Rehoboth Observatory, Rehoboth MPS 302232
2009 11 11.23684 02 13 44.45 +04 36 10.5 20.3 R G98 – Calvin-Rehoboth Observatory, Rehoboth MPS 302232
2009 11 11.26244 02 13 42.99 +04 36 06.0 20.3 R G98 – Calvin-Rehoboth Observatory, Rehoboth MPS 302232
2009 11 11.28802 02 13 41.46 +04 35 59.0 20.6 R G98 – Calvin-Rehoboth Observatory, Rehoboth MPS 302232
2009 11 16.21181 02 09 24.64 +04 20 09.2 20.5 R G98 – Calvin-Rehoboth Observatory, Rehoboth MPS 303381
2009 11 16.23944 02 09 23.24 +04 20 04.5 20.6 R G98 – Calvin-Rehoboth Observatory, Rehoboth MPS 303381
2009 11 16.25326 02 09 22.54 +04 20 02.0 20.8 R G98 – Calvin-Rehoboth Observatory, Rehoboth MPS 303381
2009 11 16.26701 02 09 21.86 +04 19 59.4 20.7 R G98 – Calvin-Rehoboth Observatory, Rehoboth MPS 303381
2009 11 16.28088 02 09 21.10 +04 19 58.2 20.6 R G98 – Calvin-Rehoboth Observatory, Rehoboth MPS 303381
2009 11 16.29459 02 09 20.45 +04 19 54.5 20.3 R G98 – Calvin-Rehoboth Observatory, Rehoboth MPS 303381
2011 02 06.43874 09 16 45.19 +15 19 15.3 20.1 V G96 – Mt. Lemmon Survey MPS 369579
2011 02 06.44451 09 16 44.83 +15 19 17.5 20.3 V G96 – Mt. Lemmon Survey MPS 369579
2011 02 06.45034 09 16 44.43 +15 19 20.0 20.9 V G96 – Mt. Lemmon Survey MPS 369579
2011 02 06.45617 09 16 44.11 +15 19 22.9 20.3 V G96 – Mt. Lemmon Survey MPS 369579
2011 02 07.43995 09 15 42.04 +15 26 05.1 20.3 V G96 – Mt. Lemmon Survey MPS 369579
2011 02 07.44691 09 15 41.61 +15 26 07.9 20.3 V G96 – Mt. Lemmon Survey MPS 369579
2011 02 07.45392 09 15 41.14 +15 26 10.5 20.2 V G96 – Mt. Lemmon Survey MPS 369579
2011 02 07.46094 09 15 40.71 +15 26 13.3 20.4 V G96 – Mt. Lemmon Survey MPS 369579
2011 03 06.19466 08 51 03.45 +18 05 01.8 20.8 V G96 – Mt. Lemmon Survey MPS 373486
